Rush City, MN

1:21 AM CDT on May 26, 2018 (GMT -0500)
Rush City Regional

Weather History for KROS - November, 2011

Change the Weather History Date:

Friday, November 4, 2011

  Actual Average (WUND) Record (WUND)
Temperature  
Mean Temperature 38 °F -  
Max Temperature 54 °F - - (-1)
Min Temperature 21 °F - - (-1)
Degree Days  
Heating Degree Days 28    
Moisture  
Dew Point 23 °F    
Average Humidity 62    
Maximum Humidity 90    
Minimum Humidity 27    
Precipitation  
Precipitation 0.00 in - - ()
Sea Level Pressure  
Sea Level Pressure 30.19 in    
Wind  
Wind Speed 5 mph (SSE)    
Max Wind Speed 16 mph    
Max Gust Speed 24 mph    
Visibility 10 miles    
Events      
Averages and records for this station are not official NWS values.
T = Trace of Precipitation, MM = Missing Value Source: NWS Daily Summary

Daily Weather History Graph

Daily Weather History Graph

Search for Another Location

Airport or City:

Astronomy

Nov. 04, 2011 Rise Set
Actual Time 7:55 AM CDT 5:54 PM CDT
Civil Twilight 7:24 AM CDT 6:25 PM CDT
Nautical Twilight 6:49 AM CDT 7:00 PM CDT
Astronomical Twilight 6:14 AM CDT 7:35 PM CDT
Moon 3:01 PM CDT (11/4) 1:51 AM CDT (11/4)
Length of Visible Light 11h 01m
Length of Day
9h 58m
Waxing Gibbous, 69% of the Moon is Illuminated
Nov 4
Waxing Gibbous
Nov 10
Full
Nov 18
Last Quarter
Nov 25
New
Dec 2
First Quarter

Hourly Weather History & Observations

Time (CDT) Temp. Windchill Dew Point Humidity Pressure Visibility Wind Dir Wind Speed Gust Speed Precip Events Conditions
12:14 AM 26.6 °F 22.6 °F 20.7 °F 78% 30.23 in 10.0 mi South 3.5 mph - N/A   Clear
12:54 AM 29.3 °F - 21.4 °F 72% 30.24 in 10.0 mi Calm Calm - N/A   Clear
1:14 AM 27.9 °F - 21.2 °F 76% 30.24 in 10.0 mi Calm Calm - N/A   Clear
1:33 AM 27.1 °F - 20.8 °F 77% 30.24 in 10.0 mi Calm Calm - N/A   Clear
2:13 AM 26.2 °F - 21.0 °F 81% 30.23 in 10.0 mi Calm Calm - N/A   Clear
2:34 AM 24.4 °F - 20.1 °F 84% 30.23 in 10.0 mi Calm Calm - N/A   Clear
2:54 AM 23.4 °F - 20.7 °F 89% 30.23 in 10.0 mi Calm Calm - N/A   Clear
3:14 AM 24.3 °F - 20.3 °F 85% 30.23 in 10.0 mi Calm Calm - N/A   Clear
3:34 AM 24.8 °F - 21.2 °F 86% 30.23 in 10.0 mi Calm Calm - N/A   Clear
3:54 AM 24.4 °F - 20.8 °F 86% 30.24 in 10.0 mi Calm Calm - N/A   Clear
4:14 AM 25.3 °F - 20.7 °F 82% 30.23 in 10.0 mi Calm Calm - N/A   Clear
4:34 AM 23.5 °F 19.1 °F 19.6 °F 85% 30.23 in 10.0 mi SSE 3.5 mph - N/A   Clear
4:54 AM 22.6 °F 18.0 °F 19.9 °F 89% 30.23 in 10.0 mi South 3.5 mph - N/A   Clear
5:14 AM 24.4 °F 20.1 °F 21.2 °F 87% 30.23 in 10.0 mi South 3.5 mph - N/A   Clear
5:34 AM 24.8 °F 20.5 °F 21.2 °F 86% 30.23 in 10.0 mi South 3.5 mph - N/A   Clear
5:54 AM 25.2 °F 20.9 °F 21.6 °F 86% 30.24 in 10.0 mi South 3.5 mph - N/A   Clear
6:34 AM 24.8 °F - 21.7 °F 88% 30.24 in 10.0 mi Calm Calm - N/A   Clear
6:54 AM 24.4 °F 18.6 °F 21.2 °F 87% 30.24 in 10.0 mi SSE 4.6 mph - N/A   Clear
7:13 AM 21.9 °F 15.7 °F 19.0 °F 89% 30.24 in 10.0 mi SSE 4.6 mph - N/A   Clear
7:34 AM 24.8 °F 19.1 °F 21.9 °F 89% 30.24 in 10.0 mi SSE 4.6 mph - N/A   Clear
7:54 AM 24.8 °F 19.1 °F 22.3 °F 90% 30.24 in 10.0 mi South 4.6 mph - N/A   Clear
8:14 AM 25.0 °F 20.7 °F 21.9 °F 88% 30.25 in 10.0 mi South 3.5 mph - N/A   Clear
8:34 AM 25.7 °F 19.0 °F 22.6 °F 88% 30.25 in 10.0 mi SSE 5.8 mph - N/A   Clear
8:54 AM 28.6 °F 22.4 °F 24.6 °F 85% 30.24 in 10.0 mi SSE 5.8 mph - N/A   Clear
9:14 AM 30.9 °F 25.2 °F 25.2 °F 79% 30.25 in 10.0 mi South 5.8 mph - N/A   Clear
9:33 AM 32.0 °F 25.6 °F 25.5 °F 77% 30.25 in 10.0 mi SSE 6.9 mph - N/A   Clear
9:54 AM 33.1 °F 26.9 °F 25.9 °F 75% 30.25 in 10.0 mi SSE 6.9 mph - N/A   Clear
10:14 AM 35.4 °F 29.7 °F 26.4 °F 70% 30.24 in 10.0 mi SSE 6.9 mph - N/A   Clear
10:34 AM 37.8 °F 31.3 °F 26.8 °F 65% 30.24 in 10.0 mi SSE 9.2 mph - N/A   Clear
10:54 AM 41.0 °F 34.7 °F 27.5 °F 59% 30.23 in 10.0 mi SSE 10.4 mph - N/A   Clear
11:14 AM 43.9 °F 37.9 °F 26.4 °F 50% 30.23 in 10.0 mi SSE 11.5 mph - N/A   Clear
11:34 AM 45.7 °F 39.1 °F 24.8 °F 44% 30.22 in 10.0 mi SSE 15.0 mph 19.6 mph N/A   Clear
11:53 AM 46.8 °F - 24.6 °F 42% 30.21 in 10.0 mi SSE 13.8 mph 17.3 mph N/A   Clear
12:14 PM 47.8 °F - 24.4 °F 40% 30.21 in 10.0 mi South 12.7 mph 19.6 mph N/A   Clear
12:34 PM 48.7 °F - 23.0 °F 36% 30.22 in 10.0 mi South 13.8 mph 19.6 mph N/A   Clear
12:54 PM 49.1 °F - 23.4 °F 36% 30.21 in 10.0 mi South 12.7 mph 18.4 mph N/A   Scattered Clouds
1:14 PM 50.4 °F - 23.4 °F 35% 30.20 in 10.0 mi South 12.7 mph 17.3 mph N/A   Clear
1:34 PM 51.1 °F - 22.5 °F 33% 30.19 in 10.0 mi SSE 11.5 mph 18.4 mph N/A   Clear
2:34 PM 53.6 °F - 20.8 °F 28% 30.16 in 10.0 mi SSE 12.7 mph - N/A   Scattered Clouds
2:54 PM 53.6 °F - 20.1 °F 27% 30.15 in 10.0 mi SSE 15.0 mph - N/A   Scattered Clouds
3:13 PM 54.1 °F - 20.3 °F 27% 30.14 in 10.0 mi SSE 16.1 mph - N/A   Clear
3:34 PM 53.2 °F - 19.4 °F 27% 30.14 in 10.0 mi South 16.1 mph 24.2 mph N/A   Clear
3:54 PM 53.6 °F - 20.1 °F 27% 30.13 in 10.0 mi SSE 13.8 mph 18.4 mph N/A   Clear
4:14 PM 52.3 °F - 19.9 °F 28% 30.12 in 10.0 mi SSE 10.4 mph - N/A   Clear
4:34 PM 51.4 °F - 19.4 °F 28% 30.11 in 10.0 mi SSE 15.0 mph - N/A   Clear
4:54 PM 51.1 °F - 19.8 °F 29% 30.10 in 10.0 mi South 11.5 mph 16.1 mph N/A   Clear
5:54 PM 48.4 °F - 19.4 °F 32% 30.08 in 10.0 mi SSE 8.1 mph - N/A   Scattered Clouds
6:14 PM 48.2 °F - 21.4 °F 35% 30.08 in 10.0 mi SE 11.5 mph 17.3 mph N/A   Scattered Clouds
6:34 PM 46.9 °F - 23.0 °F 39% 30.08 in 10.0 mi SSE 10.4 mph 18.4 mph N/A   Mostly Cloudy
6:54 PM 46.6 °F - 23.0 °F 39% 30.08 in 10.0 mi SSE 9.2 mph 18.4 mph N/A   Mostly Cloudy
7:34 PM 45.0 °F 39.3 °F 24.8 °F 45% 30.07 in 10.0 mi SE 11.5 mph 18.4 mph N/A   Mostly Cloudy
7:54 PM 44.8 °F 38.7 °F 25.7 °F 47% 30.06 in 10.0 mi SE 12.7 mph 18.4 mph N/A   Mostly Cloudy
8:33 PM 43.3 °F 37.2 °F 26.1 °F 51% 30.07 in 10.0 mi SSE 11.5 mph - N/A   Mostly Cloudy
8:54 PM 42.3 °F 36.3 °F 26.1 °F 53% 30.07 in 10.0 mi SSE 10.4 mph - N/A   Scattered Clouds
9:14 PM 41.9 °F 35.4 °F 26.6 °F 55% 30.07 in 10.0 mi SSE 11.5 mph 16.1 mph N/A   Scattered Clouds
9:34 PM 41.2 °F 35.5 °F 27.0 °F 57% 30.07 in 10.0 mi SE 9.2 mph - N/A   Scattered Clouds
9:54 PM 41.0 °F 34.3 °F 27.5 °F 59% 30.07 in 10.0 mi SE 11.5 mph - N/A   Scattered Clouds
10:14 PM 40.3 °F 34.4 °F 28.0 °F 62% 30.07 in 10.0 mi SSE 9.2 mph - N/A   Scattered Clouds
10:34 PM 39.9 °F 34.5 °F 28.0 °F 63% 30.07 in 10.0 mi SSE 8.1 mph - N/A   Scattered Clouds
10:54 PM 39.6 °F 33.0 °F 28.2 °F 64% 30.06 in 10.0 mi SSE 10.4 mph - N/A   Scattered Clouds
11:14 PM 39.2 °F 33.6 °F 28.4 °F 65% 30.06 in 10.0 mi SSE 8.1 mph - N/A   Scattered Clouds
11:34 PM 39.2 °F 33.6 °F 28.4 °F 65% 30.06 in 10.0 mi SSE 8.1 mph - N/A   Clear
11:53 PM 38.3 °F 32.5 °F 28.4 °F 68% 30.05 in 10.0 mi SSE 8.1 mph - N/A   Clear